Tracking 30070 objects as of 15-Jan-2025
HD Live streaming from Space Station
objects crossing your sky now

CZ-3B DEB

Track CZ-3B DEB now!


NORAD ID: 40185
Int'l Code: 2011-077J
Perigee: 529.7 km
Apogee: 41,351.0 km
Inclination: 25.8 °
Period: 748.6 minutes
Semi major axis: 27311 km
RCS: Unknown
Launch date: December 19, 2011
Source: People's Republic of China (PRC)
Launch site: Xichang Space Center, China (XSC)

Note: This is SATELLITE DEBRIS
Your satellite tracking list
Your tracking list is empty




NASA's NSSDC Master Catalog

Two Line Element Set (TLE):
1 40185U 11077J   25013.93750394  .00000380  00000-0  51824-2 0  9998
2 40185  25.8432  29.2662 7473338   6.3161 359.4690  1.92348366 75317
Source of the keplerian elements: AFSPC